Year,Month,Day,Hour,Minute,Value (Times are PST for temperature in C)
2010,06,13,00,00,10.90
2010,06,13,00,01,10.90
2010,06,13,00,02,10.90
2010,06,13,00,03,10.90
2010,06,13,00,04,10.90
2010,06,13,00,05,10.90
2010,06,13,00,06,10.90
2010,06,13,00,07,10.90
2010,06,13,00,08,10.90
2010,06,13,00,09,10.80
2010,06,13,00,10,10.80
2010,06,13,00,11,10.80
2010,06,13,00,12,10.80
2010,06,13,00,13,10.80
2010,06,13,00,14,10.80
2010,06,13,00,15,10.80
2010,06,13,00,16,10.80
2010,06,13,00,17,10.80
2010,06,13,00,18,10.80
2010,06,13,00,19,10.80
2010,06,13,00,20,10.80
2010,06,13,00,21,10.80
2010,06,13,00,22,10.80
2010,06,13,00,23,10.80
2010,06,13,00,24,10.80
2010,06,13,00,25,10.80
2010,06,13,00,26,10.80
2010,06,13,00,27,10.80
2010,06,13,00,28,10.80
2010,06,13,00,29,10.80
2010,06,13,00,30,10.70
2010,06,13,00,31,10.70
2010,06,13,00,32,10.70
2010,06,13,00,33,10.70
2010,06,13,00,34,10.70
2010,06,13,00,35,10.70
2010,06,13,00,36,10.70
2010,06,13,00,37,10.70
2010,06,13,00,38,10.70
2010,06,13,00,39,10.60
2010,06,13,00,40,10.60
2010,06,13,00,41,10.60
2010,06,13,00,42,10.60
2010,06,13,00,43,10.60
2010,06,13,00,44,10.60
2010,06,13,00,45,10.60
2010,06,13,00,46,10.60
2010,06,13,00,47,10.60
2010,06,13,00,48,10.60
2010,06,13,00,49,10.50
2010,06,13,00,50,10.50
2010,06,13,00,51,10.50
2010,06,13,00,52,10.40
2010,06,13,00,53,10.40
2010,06,13,00,54,10.40
2010,06,13,00,55,10.40
2010,06,13,00,56,10.40
2010,06,13,00,57,10.30
2010,06,13,00,58,10.30
2010,06,13,00,59,10.30
2010,06,13,01,00,10.30
2010,06,13,01,01,10.30
2010,06,13,01,02,10.30
2010,06,13,01,03,10.30
2010,06,13,01,04,10.30
2010,06,13,01,05,10.30
2010,06,13,01,06,10.30
2010,06,13,01,07,10.30
2010,06,13,01,08,10.30
2010,06,13,01,09,10.30
2010,06,13,01,10,10.30
2010,06,13,01,11,10.30
2010,06,13,01,12,10.30
2010,06,13,01,13,10.30
2010,06,13,01,14,10.30
2010,06,13,01,15,10.30
2010,06,13,01,16,10.30
2010,06,13,01,17,10.30
2010,06,13,01,18,10.20
2010,06,13,01,19,10.20
2010,06,13,01,20,10.20
2010,06,13,01,21,10.20
2010,06,13,01,22,10.20
2010,06,13,01,23,10.20
2010,06,13,01,24,10.20
2010,06,13,01,25,10.20
2010,06,13,01,26,10.20
2010,06,13,01,27,10.20
2010,06,13,01,28,10.10
2010,06,13,01,29,10.10
2010,06,13,01,30,10.10
2010,06,13,01,31,10.10
2010,06,13,01,32,10.10
2010,06,13,01,33,10.00
2010,06,13,01,34,10.00
2010,06,13,01,35,10.00
2010,06,13,01,36,10.00
2010,06,13,01,37,10.00
2010,06,13,01,38,10.00
2010,06,13,01,39,10.00
2010,06,13,01,40,10.00
2010,06,13,01,41,9.90
2010,06,13,01,42,9.90
2010,06,13,01,43,9.90
2010,06,13,01,44,9.90
2010,06,13,01,45,9.90
2010,06,13,01,46,9.90
2010,06,13,01,47,9.90
2010,06,13,01,48,9.90
2010,06,13,01,49,9.90
2010,06,13,01,50,9.80
2010,06,13,01,51,9.80
2010,06,13,01,52,9.80
2010,06,13,01,53,9.80
2010,06,13,01,54,9.80
2010,06,13,01,55,9.80
2010,06,13,01,56,9.80
2010,06,13,01,57,9.80
2010,06,13,01,58,9.80
2010,06,13,01,59,9.70
2010,06,13,02,00,9.70
2010,06,13,02,01,9.70
2010,06,13,02,02,9.70
2010,06,13,02,03,9.70
2010,06,13,02,04,9.70
2010,06,13,02,05,9.60
2010,06,13,02,06,9.60
2010,06,13,02,07,9.60
2010,06,13,02,08,9.60
2010,06,13,02,09,9.60
2010,06,13,02,10,9.60
2010,06,13,02,11,9.60
2010,06,13,02,12,9.60
2010,06,13,02,13,9.60
2010,06,13,02,14,9.60
2010,06,13,02,15,9.60
2010,06,13,02,16,9.60
2010,06,13,02,17,9.60
2010,06,13,02,18,9.60
2010,06,13,02,19,9.60
2010,06,13,02,20,9.60
2010,06,13,02,21,9.60
2010,06,13,02,22,9.60
2010,06,13,02,23,9.60
2010,06,13,02,24,9.60
2010,06,13,02,25,9.60
2010,06,13,02,26,9.50
2010,06,13,02,27,9.50
2010,06,13,02,28,9.50
2010,06,13,02,29,9.50
2010,06,13,02,30,9.50
2010,06,13,02,31,9.40
2010,06,13,02,32,9.40
2010,06,13,02,33,9.40
2010,06,13,02,34,9.40
2010,06,13,02,35,9.40
2010,06,13,02,36,9.40
2010,06,13,02,37,9.40
2010,06,13,02,38,9.40
2010,06,13,02,39,9.40
2010,06,13,02,40,9.40
2010,06,13,02,41,9.40
2010,06,13,02,42,9.40
2010,06,13,02,43,9.40
2010,06,13,02,44,9.40
2010,06,13,02,45,9.40
2010,06,13,02,46,9.40
2010,06,13,02,47,9.40
2010,06,13,02,48,9.40
2010,06,13,02,49,9.40
2010,06,13,02,50,9.40
2010,06,13,02,51,9.40
2010,06,13,02,52,9.40
2010,06,13,02,53,9.40
2010,06,13,02,54,9.40
2010,06,13,02,55,9.40
2010,06,13,02,56,9.50
2010,06,13,02,57,9.50
2010,06,13,02,58,9.60
2010,06,13,02,59,9.60
2010,06,13,03,00,9.70
2010,06,13,03,01,9.70
2010,06,13,03,02,9.80
2010,06,13,03,03,9.80
2010,06,13,03,04,9.90
2010,06,13,03,05,10.00
2010,06,13,03,06,10.10
2010,06,13,03,07,10.20
2010,06,13,03,08,10.30
2010,06,13,03,09,10.30
2010,06,13,03,10,10.40
2010,06,13,03,11,10.40
2010,06,13,03,12,10.50
2010,06,13,03,13,10.60
2010,06,13,03,14,10.70
2010,06,13,03,15,10.70
2010,06,13,03,16,10.70
2010,06,13,03,17,10.80
2010,06,13,03,18,10.80
2010,06,13,03,19,10.80
2010,06,13,03,20,10.80
2010,06,13,03,21,10.80
2010,06,13,03,22,10.90
2010,06,13,03,23,10.90
2010,06,13,03,24,11.00
2010,06,13,03,25,11.00
2010,06,13,03,26,11.10
2010,06,13,03,27,11.10
2010,06,13,03,28,11.20
2010,06,13,03,29,11.20
2010,06,13,03,30,11.20
2010,06,13,03,31,11.20
2010,06,13,03,32,11.20
2010,06,13,03,33,11.20
2010,06,13,03,34,11.20
2010,06,13,03,35,11.20
2010,06,13,03,36,11.20
2010,06,13,03,37,11.20
2010,06,13,03,38,11.10
2010,06,13,03,39,11.10
2010,06,13,03,40,11.10
2010,06,13,03,41,11.10
2010,06,13,03,42,11.00
2010,06,13,03,43,11.00
2010,06,13,03,44,10.90
2010,06,13,03,45,10.90
2010,06,13,03,46,10.90
2010,06,13,03,47,10.80
2010,06,13,03,48,10.80
2010,06,13,03,49,10.80
2010,06,13,03,50,10.70
2010,06,13,03,51,10.70
2010,06,13,03,52,10.60
2010,06,13,03,53,10.60
2010,06,13,03,54,10.60
2010,06,13,03,55,10.50
2010,06,13,03,56,10.50
2010,06,13,03,57,10.40
2010,06,13,03,58,10.40
2010,06,13,03,59,10.40
2010,06,13,04,00,10.30
2010,06,13,04,01,10.30
2010,06,13,04,02,10.30
2010,06,13,04,03,10.30
2010,06,13,04,04,10.20
2010,06,13,04,05,10.20
2010,06,13,04,06,10.20
2010,06,13,04,07,10.20
2010,06,13,04,08,10.20
2010,06,13,04,09,10.10
2010,06,13,04,10,10.10
2010,06,13,04,11,10.10
2010,06,13,04,12,10.10
2010,06,13,04,13,10.10
2010,06,13,04,14,10.10
2010,06,13,04,15,10.10
2010,06,13,04,16,10.10
2010,06,13,04,17,10.10
2010,06,13,04,18,10.10
2010,06,13,04,19,10.10
2010,06,13,04,20,10.10
2010,06,13,04,21,10.10
2010,06,13,04,22,10.10
2010,06,13,04,23,10.10
2010,06,13,04,24,10.10
2010,06,13,04,25,10.10
2010,06,13,04,26,10.10
2010,06,13,04,27,10.10
2010,06,13,04,28,10.10
2010,06,13,04,29,10.10
2010,06,13,04,30,10.10
2010,06,13,04,31,10.20
2010,06,13,04,32,10.20
2010,06,13,04,33,10.20
2010,06,13,04,34,10.20
2010,06,13,04,35,10.20
2010,06,13,04,36,10.30
2010,06,13,04,37,10.30
2010,06,13,04,38,10.30
2010,06,13,04,39,10.30
2010,06,13,04,40,10.30
2010,06,13,04,41,10.30
2010,06,13,04,42,10.30
2010,06,13,04,43,10.30
2010,06,13,04,44,10.30
2010,06,13,04,45,10.30
2010,06,13,04,46,10.30
2010,06,13,04,47,10.30
2010,06,13,04,48,10.30
2010,06,13,04,49,10.30
2010,06,13,04,50,10.30
2010,06,13,04,51,10.40
2010,06,13,04,52,10.40
2010,06,13,04,53,10.40
2010,06,13,04,54,10.40
2010,06,13,04,55,10.40
2010,06,13,04,56,10.40
2010,06,13,04,57,10.40
2010,06,13,04,58,10.40
2010,06,13,04,59,10.40
2010,06,13,05,00,10.40
2010,06,13,05,01,10.30
2010,06,13,05,02,10.30
2010,06,13,05,03,10.30
2010,06,13,05,04,10.30
2010,06,13,05,05,10.30
2010,06,13,05,06,10.30
2010,06,13,05,07,10.30
2010,06,13,05,08,10.30
2010,06,13,05,09,10.30
2010,06,13,05,10,10.30
2010,06,13,05,11,10.30
2010,06,13,05,12,10.30
2010,06,13,05,13,10.20
2010,06,13,05,14,10.20
2010,06,13,05,15,10.20
2010,06,13,05,16,10.20
2010,06,13,05,17,10.20
2010,06,13,05,18,10.20
2010,06,13,05,19,10.20
2010,06,13,05,20,10.20
2010,06,13,05,21,10.10
2010,06,13,05,22,10.10
2010,06,13,05,23,10.10
2010,06,13,05,24,10.10
2010,06,13,05,25,10.10
2010,06,13,05,26,10.10
2010,06,13,05,27,10.10
2010,06,13,05,28,10.10
2010,06,13,05,29,10.00
2010,06,13,05,30,10.00
2010,06,13,05,31,10.00
2010,06,13,05,32,10.00
2010,06,13,05,33,10.10
2010,06,13,05,34,10.00
2010,06,13,05,35,10.10
2010,06,13,05,36,10.10
2010,06,13,05,37,10.10
2010,06,13,05,38,10.10
2010,06,13,05,39,10.10
2010,06,13,05,40,10.10
2010,06,13,05,41,10.10
2010,06,13,05,42,10.10
2010,06,13,05,43,10.10
2010,06,13,05,44,10.10
2010,06,13,05,45,10.10
2010,06,13,05,46,10.10
2010,06,13,05,47,10.10
2010,06,13,05,48,10.10
2010,06,13,05,49,10.10
2010,06,13,05,50,10.10
2010,06,13,05,51,10.10
2010,06,13,05,52,10.20
2010,06,13,05,53,10.20
2010,06,13,05,54,10.20
2010,06,13,05,55,10.20
2010,06,13,05,56,10.20
2010,06,13,05,57,10.20
2010,06,13,05,58,10.20
2010,06,13,05,59,10.20
2010,06,13,06,00,10.20
2010,06,13,06,01,10.20
2010,06,13,06,02,10.20
2010,06,13,06,03,10.20
2010,06,13,06,04,10.20
2010,06,13,06,05,10.20
2010,06,13,06,06,10.20
2010,06,13,06,07,10.20
2010,06,13,06,08,10.20
2010,06,13,06,09,10.20
2010,06,13,06,10,10.20
2010,06,13,06,11,10.20
2010,06,13,06,12,10.20
2010,06,13,06,13,10.30
2010,06,13,06,14,10.30
2010,06,13,06,15,10.30
2010,06,13,06,16,10.30
2010,06,13,06,17,10.30
2010,06,13,06,18,10.30
2010,06,13,06,19,10.30
2010,06,13,06,20,10.30
2010,06,13,06,21,10.30
2010,06,13,06,22,10.30
2010,06,13,06,23,10.40
2010,06,13,06,24,10.40
2010,06,13,06,25,10.40
2010,06,13,06,26,10.40
2010,06,13,06,27,10.50
2010,06,13,06,28,10.50
2010,06,13,06,29,10.60
2010,06,13,06,30,10.60
2010,06,13,06,31,10.60
2010,06,13,06,32,10.60
2010,06,13,06,33,10.70
2010,06,13,06,34,10.70
2010,06,13,06,35,10.80
2010,06,13,06,36,10.80
2010,06,13,06,37,10.80
2010,06,13,06,38,10.80
2010,06,13,06,39,10.90
2010,06,13,06,40,10.90
2010,06,13,06,41,11.00
2010,06,13,06,42,11.00
2010,06,13,06,43,11.10
2010,06,13,06,44,11.10
2010,06,13,06,45,11.10
2010,06,13,06,46,11.20
2010,06,13,06,47,11.20
2010,06,13,06,48,11.30
2010,06,13,06,49,11.30
2010,06,13,06,50,11.40
2010,06,13,06,51,11.40
2010,06,13,06,52,11.50
2010,06,13,06,53,11.60
2010,06,13,06,54,11.60
2010,06,13,06,55,11.60
2010,06,13,06,56,11.70
2010,06,13,06,57,11.70
2010,06,13,06,58,11.80
2010,06,13,06,59,11.80
2010,06,13,07,00,11.90
2010,06,13,07,01,12.00
2010,06,13,07,02,12.10
2010,06,13,07,03,12.20
2010,06,13,07,04,12.20
2010,06,13,07,05,12.30
2010,06,13,07,06,12.40
2010,06,13,07,07,12.50
2010,06,13,07,08,12.50
2010,06,13,07,09,12.60
2010,06,13,07,10,12.70
2010,06,13,07,11,12.70
2010,06,13,07,12,12.80
2010,06,13,07,13,12.80
2010,06,13,07,14,12.90
2010,06,13,07,15,13.00
2010,06,13,07,16,13.00
2010,06,13,07,17,13.10
2010,06,13,07,18,13.10
2010,06,13,07,19,13.20
2010,06,13,07,20,13.30
2010,06,13,07,21,13.30
2010,06,13,07,22,13.40
2010,06,13,07,23,13.40
2010,06,13,07,24,13.50
2010,06,13,07,25,13.50
2010,06,13,07,26,13.50
2010,06,13,07,27,13.60
2010,06,13,07,28,13.60
2010,06,13,07,29,13.60
2010,06,13,07,30,13.60
2010,06,13,07,31,13.60
2010,06,13,07,32,13.60
2010,06,13,07,33,13.60
2010,06,13,07,34,13.60
2010,06,13,07,35,13.60
2010,06,13,07,36,13.60
2010,06,13,07,37,13.60
2010,06,13,07,38,13.60
2010,06,13,07,39,13.60
2010,06,13,07,40,13.60
2010,06,13,07,41,13.60
2010,06,13,07,42,13.60
2010,06,13,07,43,13.60
2010,06,13,07,44,13.60
2010,06,13,07,45,13.60
2010,06,13,07,46,13.60
2010,06,13,07,47,13.60
2010,06,13,07,48,13.60
2010,06,13,07,49,13.60
2010,06,13,07,50,13.60
2010,06,13,07,51,13.60
2010,06,13,07,52,13.60
2010,06,13,07,53,13.60
2010,06,13,07,54,13.60
2010,06,13,07,55,13.60
2010,06,13,07,56,13.60
2010,06,13,07,57,13.60
2010,06,13,07,58,13.60
2010,06,13,07,59,13.70
2010,06,13,08,00,13.70
2010,06,13,08,01,13.70
2010,06,13,08,02,13.70
2010,06,13,08,03,13.70
2010,06,13,08,04,13.70
2010,06,13,08,05,13.80
2010,06,13,08,06,13.80
2010,06,13,08,07,13.80
2010,06,13,08,08,13.80
2010,06,13,08,09,13.80
2010,06,13,08,10,13.90
2010,06,13,08,11,13.90
2010,06,13,08,12,13.90
2010,06,13,08,13,14.00
2010,06,13,08,14,14.00
2010,06,13,08,15,14.00
2010,06,13,08,16,14.00
2010,06,13,08,17,14.10
2010,06,13,08,18,14.10
2010,06,13,08,19,14.10
2010,06,13,08,20,14.10
2010,06,13,08,21,14.20
2010,06,13,08,22,14.20
2010,06,13,08,23,14.30
2010,06,13,08,24,14.30
2010,06,13,08,25,14.30
2010,06,13,08,26,14.40
2010,06,13,08,27,14.50
2010,06,13,08,28,14.50
2010,06,13,08,29,14.60
2010,06,13,08,30,14.60
2010,06,13,08,31,14.70
2010,06,13,08,32,14.70
2010,06,13,08,33,14.70
2010,06,13,08,34,14.70
2010,06,13,08,35,14.70
2010,06,13,08,36,14.70
2010,06,13,08,37,14.70
2010,06,13,08,38,14.70
2010,06,13,08,39,14.70
2010,06,13,08,40,14.70
2010,06,13,08,41,14.80
2010,06,13,08,42,14.80
2010,06,13,08,43,14.80
2010,06,13,08,44,14.80
2010,06,13,08,45,14.80
2010,06,13,08,46,14.80
2010,06,13,08,47,14.90
2010,06,13,08,48,14.90
2010,06,13,08,49,14.90
2010,06,13,08,50,15.00
2010,06,13,08,51,15.00
2010,06,13,08,52,14.90
2010,06,13,08,53,14.90
2010,06,13,08,54,14.90
2010,06,13,08,55,14.80
2010,06,13,08,56,14.80
2010,06,13,08,57,14.80
2010,06,13,08,58,14.70
2010,06,13,08,59,14.70
2010,06,13,09,00,14.60
2010,06,13,09,01,14.60
2010,06,13,09,02,14.60
2010,06,13,09,03,14.60
2010,06,13,09,04,14.50
2010,06,13,09,05,14.50
2010,06,13,09,06,14.50
2010,06,13,09,07,14.40
2010,06,13,09,08,14.40
2010,06,13,09,09,14.40
2010,06,13,09,10,14.40
2010,06,13,09,11,14.40
2010,06,13,09,12,14.30
2010,06,13,09,13,14.30
2010,06,13,09,14,14.30
2010,06,13,09,15,14.30
2010,06,13,09,16,14.20
2010,06,13,09,17,14.20
2010,06,13,09,18,14.20
2010,06,13,09,19,14.20
2010,06,13,09,20,14.20
2010,06,13,09,21,14.20
2010,06,13,09,22,14.20
2010,06,13,09,23,14.20
2010,06,13,09,24,14.20
2010,06,13,09,25,14.20
2010,06,13,09,26,14.20
2010,06,13,09,27,14.20
2010,06,13,09,28,14.20
2010,06,13,09,29,14.20
2010,06,13,09,30,14.20
2010,06,13,09,31,14.20
2010,06,13,09,32,14.20
2010,06,13,09,33,14.20
2010,06,13,09,34,14.20
2010,06,13,09,35,14.20
2010,06,13,09,36,14.30
2010,06,13,09,37,14.20
2010,06,13,09,38,14.30
2010,06,13,09,39,14.30
2010,06,13,09,40,14.30
2010,06,13,09,41,14.30
2010,06,13,09,42,14.30
2010,06,13,09,43,14.30
2010,06,13,09,44,14.30
2010,06,13,09,45,14.30
2010,06,13,09,46,14.30
2010,06,13,09,47,14.30
2010,06,13,09,48,14.30
2010,06,13,09,49,14.30
2010,06,13,09,50,14.30
2010,06,13,09,51,14.30
2010,06,13,09,52,14.30
2010,06,13,09,53,14.30
2010,06,13,09,54,14.30
2010,06,13,09,55,14.30
2010,06,13,09,56,14.30
2010,06,13,09,57,14.20
2010,06,13,09,58,14.20
2010,06,13,09,59,14.20
2010,06,13,10,00,14.20
2010,06,13,10,01,14.20
2010,06,13,10,02,14.20
2010,06,13,10,03,14.30
2010,06,13,10,04,14.30
2010,06,13,10,05,14.30
2010,06,13,10,06,14.30
2010,06,13,10,07,14.30
2010,06,13,10,08,14.30
2010,06,13,10,09,14.30
2010,06,13,10,10,14.30
2010,06,13,10,11,14.30
2010,06,13,10,12,14.30
2010,06,13,10,13,14.40
2010,06,13,10,14,14.40
2010,06,13,10,15,14.50
2010,06,13,10,16,14.60
2010,06,13,10,17,14.60
2010,06,13,10,18,14.60
2010,06,13,10,19,14.70
2010,06,13,10,20,14.70
2010,06,13,10,21,14.70
2010,06,13,10,22,14.70
2010,06,13,10,23,14.80
2010,06,13,10,24,14.80
2010,06,13,10,25,14.90
2010,06,13,10,26,15.00
2010,06,13,10,27,15.00
2010,06,13,10,28,15.00
2010,06,13,10,29,15.20
2010,06,13,10,30,15.30
2010,06,13,10,31,15.40
2010,06,13,10,32,15.40
2010,06,13,10,33,15.50
2010,06,13,10,34,15.50
2010,06,13,10,35,15.60
2010,06,13,10,36,15.70
2010,06,13,10,37,15.70
2010,06,13,10,38,15.80
2010,06,13,10,39,15.80
2010,06,13,10,40,15.70
2010,06,13,10,41,15.70
2010,06,13,10,42,15.70
2010,06,13,10,43,15.70
2010,06,13,10,44,15.60
2010,06,13,10,45,15.50
2010,06,13,10,46,15.40
2010,06,13,10,47,15.30
2010,06,13,10,48,15.30
2010,06,13,10,49,15.30
2010,06,13,10,50,15.30
2010,06,13,10,51,15.30
2010,06,13,10,52,15.40
2010,06,13,10,53,15.50
2010,06,13,10,54,15.50
2010,06,13,10,55,15.60
2010,06,13,10,56,15.70
2010,06,13,10,57,15.80
2010,06,13,10,58,15.90
2010,06,13,10,59,16.00
2010,06,13,11,00,16.10
2010,06,13,11,01,16.20
2010,06,13,11,02,16.20
2010,06,13,11,03,16.20
2010,06,13,11,04,16.20
2010,06,13,11,05,16.20
2010,06,13,11,06,16.20
2010,06,13,11,07,16.30
2010,06,13,11,08,16.30
2010,06,13,11,09,16.30
2010,06,13,11,10,16.30
2010,06,13,11,11,16.40
2010,06,13,11,12,16.40
2010,06,13,11,13,16.40
2010,06,13,11,14,16.40
2010,06,13,11,15,16.50
2010,06,13,11,16,16.60
2010,06,13,11,17,16.70
2010,06,13,11,18,16.80
2010,06,13,11,19,16.90
2010,06,13,11,20,17.00
2010,06,13,11,21,17.10
2010,06,13,11,22,17.00
2010,06,13,11,23,16.90
2010,06,13,11,24,16.80
2010,06,13,11,25,16.70
2010,06,13,11,26,16.70
2010,06,13,11,27,16.70
2010,06,13,11,28,16.70
2010,06,13,11,29,16.70
2010,06,13,11,30,16.70
2010,06,13,11,31,16.80
2010,06,13,11,32,16.90
2010,06,13,11,33,16.90
2010,06,13,11,34,16.90
2010,06,13,11,35,16.90
2010,06,13,11,36,16.80
2010,06,13,11,37,16.80
2010,06,13,11,38,16.90
2010,06,13,11,39,16.90
2010,06,13,11,40,17.00
2010,06,13,11,41,17.10
2010,06,13,11,42,17.10
2010,06,13,11,43,17.20
2010,06,13,11,44,17.10
2010,06,13,11,45,17.20
2010,06,13,11,46,17.20
2010,06,13,11,47,17.20
2010,06,13,11,48,17.20
2010,06,13,11,49,17.30
2010,06,13,11,50,17.30
2010,06,13,11,51,17.20
2010,06,13,11,52,17.20
2010,06,13,11,53,17.20
2010,06,13,11,54,17.30
2010,06,13,11,55,17.30
2010,06,13,11,56,17.30
2010,06,13,11,57,17.30
2010,06,13,11,58,17.30
2010,06,13,11,59,17.40
2010,06,13,12,00,17.50
2010,06,13,12,01,17.50
2010,06,13,12,02,17.60
2010,06,13,12,03,17.70
2010,06,13,12,04,17.80
2010,06,13,12,05,17.90
2010,06,13,12,06,18.00
2010,06,13,12,07,17.90
2010,06,13,12,08,17.90
2010,06,13,12,09,17.80
2010,06,13,12,10,17.80
2010,06,13,12,11,17.70
2010,06,13,12,12,17.60
2010,06,13,12,13,17.60
2010,06,13,12,14,17.60
2010,06,13,12,15,17.70
2010,06,13,12,16,17.70
2010,06,13,12,17,17.80
2010,06,13,12,18,17.80
2010,06,13,12,19,17.90
2010,06,13,12,20,18.00
2010,06,13,12,21,18.10
2010,06,13,12,22,18.20
2010,06,13,12,23,18.30
2010,06,13,12,24,18.30
2010,06,13,12,25,18.30
2010,06,13,12,26,18.20
2010,06,13,12,27,18.20
2010,06,13,12,28,18.20
2010,06,13,12,29,18.10
2010,06,13,12,30,18.10
2010,06,13,12,31,18.20
2010,06,13,12,32,18.20
2010,06,13,12,33,18.20
2010,06,13,12,34,18.10
2010,06,13,12,35,18.10
2010,06,13,12,36,18.10
2010,06,13,12,37,18.20
2010,06,13,12,38,18.30
2010,06,13,12,39,18.40
2010,06,13,12,40,18.50
2010,06,13,12,41,18.60
2010,06,13,12,42,18.70
2010,06,13,12,43,18.80
2010,06,13,12,44,18.90
2010,06,13,12,45,19.00
2010,06,13,12,46,19.10
2010,06,13,12,47,19.20
2010,06,13,12,48,19.20
2010,06,13,12,49,19.20
2010,06,13,12,50,19.20
2010,06,13,12,51,19.20
2010,06,13,12,52,19.10
2010,06,13,12,53,19.00
2010,06,13,12,54,18.90
2010,06,13,12,55,18.90
2010,06,13,12,56,19.00
2010,06,13,12,57,19.00
2010,06,13,12,58,19.10
2010,06,13,12,59,19.10
2010,06,13,13,00,19.10
2010,06,13,13,01,19.10
2010,06,13,13,02,19.00
2010,06,13,13,03,18.90
2010,06,13,13,04,18.90
2010,06,13,13,05,18.90
2010,06,13,13,06,18.80
2010,06,13,13,07,18.90
2010,06,13,13,08,18.90
2010,06,13,13,09,19.00
2010,06,13,13,10,19.10
2010,06,13,13,11,19.30
2010,06,13,13,12,19.30
2010,06,13,13,13,19.30
2010,06,13,13,14,19.30
2010,06,13,13,15,19.30
2010,06,13,13,16,19.30
2010,06,13,13,17,19.30
2010,06,13,13,18,19.20
2010,06,13,13,19,19.10
2010,06,13,13,20,19.00
2010,06,13,13,21,18.90
2010,06,13,13,22,18.70
2010,06,13,13,23,18.60
2010,06,13,13,24,18.50
2010,06,13,13,25,18.40
2010,06,13,13,26,18.40
2010,06,13,13,27,18.40
2010,06,13,13,28,18.40
2010,06,13,13,29,18.50
2010,06,13,13,30,18.50
2010,06,13,13,31,18.60
2010,06,13,13,32,18.70
2010,06,13,13,33,18.70
2010,06,13,13,34,18.80
2010,06,13,13,35,18.90
2010,06,13,13,36,18.90
2010,06,13,13,37,18.90
2010,06,13,13,38,18.90
2010,06,13,13,39,19.00
2010,06,13,13,40,19.00
2010,06,13,13,41,19.10
2010,06,13,13,42,19.10
2010,06,13,13,43,19.10
2010,06,13,13,44,19.10
2010,06,13,13,45,19.20
2010,06,13,13,46,19.30
2010,06,13,13,47,19.30
2010,06,13,13,48,19.30
2010,06,13,13,49,19.20
2010,06,13,13,50,19.30
2010,06,13,13,51,19.30
2010,06,13,13,52,19.40
2010,06,13,13,53,19.60
2010,06,13,13,54,19.70
2010,06,13,13,55,19.80
2010,06,13,13,56,19.80
2010,06,13,13,57,19.70
2010,06,13,13,58,19.70
2010,06,13,13,59,19.70
2010,06,13,14,00,19.80
2010,06,13,14,01,19.90
2010,06,13,14,02,19.90
2010,06,13,14,03,20.00
2010,06,13,14,04,20.10
2010,06,13,14,05,20.10
2010,06,13,14,06,20.20
2010,06,13,14,07,20.30
2010,06,13,14,08,20.30
2010,06,13,14,09,20.20
2010,06,13,14,10,20.20
2010,06,13,14,11,20.20
2010,06,13,14,12,20.20
2010,06,13,14,13,20.20
2010,06,13,14,14,20.10
2010,06,13,14,15,20.00
2010,06,13,14,16,19.90
2010,06,13,14,17,19.80
2010,06,13,14,18,19.80
2010,06,13,14,19,19.80
2010,06,13,14,20,19.80
2010,06,13,14,21,19.70
2010,06,13,14,22,19.60
2010,06,13,14,23,19.60
2010,06,13,14,24,19.60
2010,06,13,14,25,19.60
2010,06,13,14,26,19.50
2010,06,13,14,27,19.50
2010,06,13,14,28,19.50
2010,06,13,14,29,19.50
2010,06,13,14,30,19.50
2010,06,13,14,31,19.50
2010,06,13,14,32,19.60
2010,06,13,14,33,19.60
2010,06,13,14,34,19.70
2010,06,13,14,35,19.80
2010,06,13,14,36,19.80
2010,06,13,14,37,19.90
2010,06,13,14,38,20.00
2010,06,13,14,39,19.90
2010,06,13,14,40,19.90
2010,06,13,14,41,19.80
2010,06,13,14,42,19.80
2010,06,13,14,43,19.70
2010,06,13,14,44,19.70
2010,06,13,14,45,19.70
2010,06,13,14,46,19.70
2010,06,13,14,47,19.80
2010,06,13,14,48,19.80
2010,06,13,14,49,19.90
2010,06,13,14,50,20.00
2010,06,13,14,51,20.10
2010,06,13,14,52,20.20
2010,06,13,14,53,20.20
2010,06,13,14,54,20.20
2010,06,13,14,55,20.20
2010,06,13,14,56,20.10
2010,06,13,14,57,20.00
2010,06,13,14,58,19.80
2010,06,13,14,59,19.70
2010,06,13,15,00,19.70
2010,06,13,15,01,19.80
2010,06,13,15,02,19.80
2010,06,13,15,03,19.90
2010,06,13,15,04,19.90
2010,06,13,15,05,19.90
2010,06,13,15,06,19.90
2010,06,13,15,07,19.90
2010,06,13,15,08,19.90
2010,06,13,15,09,19.80
2010,06,13,15,10,19.70
2010,06,13,15,11,19.70
2010,06,13,15,12,19.70
2010,06,13,15,13,19.60
2010,06,13,15,14,19.50
2010,06,13,15,15,19.50
2010,06,13,15,16,19.50
2010,06,13,15,17,19.50
2010,06,13,15,18,19.50
2010,06,13,15,19,19.50
2010,06,13,15,20,19.50
2010,06,13,15,21,19.50
2010,06,13,15,22,19.60
2010,06,13,15,23,19.70
2010,06,13,15,24,19.70
2010,06,13,15,25,19.60
2010,06,13,15,26,19.60
2010,06,13,15,27,19.60
2010,06,13,15,28,19.60
2010,06,13,15,29,19.70
2010,06,13,15,30,19.80
2010,06,13,15,31,19.80
2010,06,13,15,32,19.80
2010,06,13,15,33,19.80
2010,06,13,15,34,19.70
2010,06,13,15,35,19.70
2010,06,13,15,36,19.70
2010,06,13,15,37,19.70
2010,06,13,15,38,19.70
2010,06,13,15,39,19.80
2010,06,13,15,40,19.70
2010,06,13,15,41,19.70
2010,06,13,15,42,19.70
2010,06,13,15,43,19.70
2010,06,13,15,44,19.60
2010,06,13,15,45,19.60
2010,06,13,15,46,19.60
2010,06,13,15,47,19.70
2010,06,13,15,48,19.70
2010,06,13,15,49,19.60
2010,06,13,15,50,19.60
2010,06,13,15,51,19.60
2010,06,13,15,52,19.50
2010,06,13,15,53,19.40
2010,06,13,15,54,19.40
2010,06,13,15,55,19.40
2010,06,13,15,56,19.40
2010,06,13,15,57,19.40
2010,06,13,15,58,19.40
2010,06,13,15,59,19.30
2010,06,13,16,00,19.20
2010,06,13,16,01,19.10
2010,06,13,16,02,19.10
2010,06,13,16,03,19.10
2010,06,13,16,04,19.10
2010,06,13,16,05,19.10
2010,06,13,16,06,19.10
2010,06,13,16,07,19.00
2010,06,13,16,08,18.90
2010,06,13,16,09,18.90
2010,06,13,16,10,18.90
2010,06,13,16,11,18.90
2010,06,13,16,12,18.90
2010,06,13,16,13,18.80
2010,06,13,16,14,18.70
2010,06,13,16,15,18.70
2010,06,13,16,16,18.60
2010,06,13,16,17,18.60
2010,06,13,16,18,18.60
2010,06,13,16,19,18.70
2010,06,13,16,20,18.70
2010,06,13,16,21,18.60
2010,06,13,16,22,18.60
2010,06,13,16,23,18.60
2010,06,13,16,24,18.60
2010,06,13,16,25,18.60
2010,06,13,16,26,18.60
2010,06,13,16,27,18.60
2010,06,13,16,28,18.60
2010,06,13,16,29,18.60
2010,06,13,16,30,18.70
2010,06,13,16,31,18.70
2010,06,13,16,32,18.70
2010,06,13,16,33,18.70
2010,06,13,16,34,18.80
2010,06,13,16,35,18.80
2010,06,13,16,36,18.80
2010,06,13,16,37,18.80
2010,06,13,16,38,18.80
2010,06,13,16,39,18.80
2010,06,13,16,40,18.70
2010,06,13,16,41,18.60
2010,06,13,16,42,18.60
2010,06,13,16,43,18.50
2010,06,13,16,44,18.40
2010,06,13,16,45,18.30
2010,06,13,16,46,18.30
2010,06,13,16,47,18.30
2010,06,13,16,48,18.30
2010,06,13,16,49,18.20
2010,06,13,16,50,18.20
2010,06,13,16,51,18.20
2010,06,13,16,52,18.20
2010,06,13,16,53,18.10
2010,06,13,16,54,18.10
2010,06,13,16,55,18.10
2010,06,13,16,56,18.00
2010,06,13,16,57,18.00
2010,06,13,16,58,18.00
2010,06,13,16,59,18.00
2010,06,13,17,00,18.10
2010,06,13,17,01,18.10
2010,06,13,17,02,18.10
2010,06,13,17,03,18.00
2010,06,13,17,04,18.00
2010,06,13,17,05,18.00
2010,06,13,17,06,18.00
2010,06,13,17,07,18.00
2010,06,13,17,08,18.00
2010,06,13,17,09,18.00
2010,06,13,17,10,17.90
2010,06,13,17,11,17.90
2010,06,13,17,12,17.90
2010,06,13,17,13,17.80
2010,06,13,17,14,17.80
2010,06,13,17,15,17.80
2010,06,13,17,16,17.80
2010,06,13,17,17,17.80
2010,06,13,17,18,17.80
2010,06,13,17,19,17.80
2010,06,13,17,20,17.80
2010,06,13,17,21,17.70
2010,06,13,17,22,17.70
2010,06,13,17,23,17.60